N145NG VA88-VA88

Flight info

Callsign N145NG
Flight time 0h 30m
Altitude 1200
Route VFR
Aircraft EC45/L-G/C

Departure

Time 2026-05-07 09:57
Airport Sentara Norfolk General Hospital Heliport (VA88)

Arrival

Time 2026-05-07 10:27
Airport Sentara Norfolk General Hospital Heliport (VA88)
Time Latitude Longitude Altitude Speed Heading
2026-05-07 09:53 36.86171 -76.30482 17 ft 0 kts
2026-05-07 09:56 36.86176 -76.30473 62 ft 2 kts 357°
2026-05-07 09:56 36.86195 -76.30462 181 ft 7 kts 329°
2026-05-07 09:56 36.86337 -76.30552 363 ft 40 kts 324°
2026-05-07 09:57 36.86670 -76.30821 593 ft 72 kts 321°
2026-05-07 09:57 36.87121 -76.31229 805 ft 84 kts 319°
2026-05-07 09:57 36.87598 -76.31698 974 ft 90 kts 318°
2026-05-07 09:57 36.88182 -76.32090 956 ft 103 kts 339°
2026-05-07 09:58 36.88918 -76.32237 950 ft 109 kts 353°
2026-05-07 09:58 36.89660 -76.32290 949 ft 104 kts 355°
2026-05-07 09:58 36.90137 -76.32305 946 ft 102 kts 357°
2026-05-07 09:58 36.91067 -76.32286 944 ft 99 kts
2026-05-07 09:59 36.91519 -76.32254 943 ft 97 kts
2026-05-07 09:59 36.92190 -76.32178 942 ft 96 kts
2026-05-07 09:59 36.92852 -76.32069 941 ft 96 kts
2026-05-07 09:59 36.93528 -76.31948 938 ft 101 kts
2026-05-07 10:00 36.94264 -76.31813 937 ft 112 kts
2026-05-07 10:00 36.95060 -76.31658 938 ft 119 kts
2026-05-07 10:00 36.95894 -76.31485 938 ft 124 kts
2026-05-07 10:00 36.96756 -76.31292 939 ft 127 kts
2026-05-07 10:01 36.97633 -76.31083 939 ft 129 kts
2026-05-07 10:01 36.98521 -76.30856 940 ft 131 kts 10°
2026-05-07 10:01 36.99414 -76.30614 941 ft 132 kts 11°
2026-05-07 10:01 37.00298 -76.30362 941 ft 132 kts 12°
2026-05-07 10:02 37.01193 -76.30097 941 ft 132 kts 12°
2026-05-07 10:02 37.02084 -76.29823 941 ft 132 kts 12°
2026-05-07 10:02 37.02974 -76.29539 941 ft 132 kts 13°
2026-05-07 10:02 37.03875 -76.29332 941 ft 131 kts
2026-05-07 10:03 37.04787 -76.29285 941 ft 131 kts 357°
2026-05-07 10:03 37.05695 -76.29400 941 ft 131 kts 349°
2026-05-07 10:03 37.06578 -76.29673 941 ft 130 kts 341°
2026-05-07 10:03 37.07420 -76.30097 941 ft 130 kts 333°
2026-05-07 10:04 37.08205 -76.30660 941 ft 130 kts 326°
2026-05-07 10:04 37.08955 -76.31290 941 ft 130 kts 323°
2026-05-07 10:04 37.09673 -76.31954 942 ft 130 kts 321°
2026-05-07 10:04 37.10372 -76.32665 942 ft 129 kts 318°
2026-05-07 10:05 37.11067 -76.33375 942 ft 129 kts 320°
2026-05-07 10:05 37.11778 -76.34063 941 ft 129 kts 322°
2026-05-07 10:05 37.12502 -76.34722 941 ft 129 kts 323°
2026-05-07 10:05 37.13239 -76.35356 941 ft 129 kts 325°
2026-05-07 10:06 37.13992 -76.35963 941 ft 129 kts 327°
2026-05-07 10:06 37.14752 -76.36558 941 ft 128 kts 325°
2026-05-07 10:06 37.15448 -76.37256 941 ft 128 kts 318°
2026-05-07 10:06 37.16126 -76.37989 940 ft 129 kts 318°
2026-05-07 10:07 37.16757 -76.38696 954 ft 111 kts 316°
2026-05-07 10:07 37.17241 -76.39298 893 ft 87 kts 314°
2026-05-07 10:07 37.17627 -76.39823 698 ft 77 kts 311°
2026-05-07 10:07 37.17968 -76.40311 621 ft 72 kts 310°
2026-05-07 10:08 37.18285 -76.40772 592 ft 68 kts 310°
2026-05-07 10:08 37.18595 -76.41216 598 ft 67 kts 310°
2026-05-07 10:08 37.18904 -76.41648 599 ft 66 kts 310°
2026-05-07 10:08 37.19216 -76.42070 615 ft 66 kts 311°
2026-05-07 10:09 37.19529 -76.42477 638 ft 65 kts 312°
2026-05-07 10:09 37.19847 -76.42881 652 ft 65 kts 313°
2026-05-07 10:09 37.20150 -76.43356 561 ft 74 kts 302°
2026-05-07 10:09 37.20402 -76.43896 470 ft 68 kts 294°
2026-05-07 10:10 37.20572 -76.44424 380 ft 62 kts 289°
2026-05-07 10:10 37.20708 -76.44887 286 ft 47 kts 298°
2026-05-07 10:10 37.20884 -76.45116 137 ft 29 kts 338°
2026-05-07 10:10 37.21038 -76.45165 54 ft 17 kts 344°
2026-05-07 10:11 37.21129 -76.45190 31 ft 9 kts 345°
2026-05-07 10:11 37.21150 -76.45202 23 ft 0 kts 346°
2026-05-07 10:14 37.21149 -76.45200 60 ft 0 kts 21°
2026-05-07 10:14 37.21151 -76.45195 85 ft 1 kts 154°
2026-05-07 10:15 37.21072 -76.45158 163 ft 29 kts 155°
2026-05-07 10:15 37.20752 -76.45039 398 ft 66 kts 168°
2026-05-07 10:15 37.20228 -76.44888 591 ft 88 kts 166°
2026-05-07 10:15 37.19610 -76.44673 773 ft 96 kts 164°
2026-05-07 10:16 37.18950 -76.44433 922 ft 101 kts 166°
2026-05-07 10:16 37.18248 -76.44213 943 ft 108 kts 168°
2026-05-07 10:16 37.17488 -76.44001 937 ft 115 kts 169°
2026-05-07 10:16 37.16686 -76.43803 934 ft 119 kts 171°
2026-05-07 10:17 37.15857 -76.43621 932 ft 122 kts 172°
2026-05-07 10:17 37.15011 -76.43457 932 ft 124 kts 173°
2026-05-07 10:17 37.14156 -76.43314 930 ft 125 kts 174°
2026-05-07 10:17 37.13292 -76.43169 930 ft 126 kts 172°
2026-05-07 10:18 37.12436 -76.42929 931 ft 127 kts 167°
2026-05-07 10:18 37.11597 -76.42624 931 ft 127 kts 165°
2026-05-07 10:18 37.10746 -76.42306 932 ft 127 kts 165°
2026-05-07 10:18 37.09897 -76.41986 932 ft 127 kts 165°
2026-05-07 10:19 37.09049 -76.41665 930 ft 127 kts 165°
2026-05-07 10:19 37.08204 -76.41345 932 ft 127 kts 165°
2026-05-07 10:19 37.07367 -76.41030 930 ft 127 kts 165°
2026-05-07 10:19 37.06518 -76.40708 931 ft 127 kts 165°
2026-05-07 10:20 37.05671 -76.40389 932 ft 127 kts 165°
2026-05-07 10:20 37.04824 -76.40072 931 ft 127 kts 165°
2026-05-07 10:20 37.03980 -76.39753 932 ft 126 kts 165°
2026-05-07 10:20 37.03139 -76.39435 930 ft 126 kts 165°
2026-05-07 10:21 37.02300 -76.39117 930 ft 126 kts 165°
2026-05-07 10:21 37.01458 -76.38796 929 ft 126 kts 165°
2026-05-07 10:21 37.00615 -76.38476 932 ft 127 kts 165°
2026-05-07 10:21 36.99771 -76.38156 931 ft 127 kts 165°
2026-05-07 10:22 36.98928 -76.37834 930 ft 127 kts 165°
2026-05-07 10:22 36.98084 -76.37514 932 ft 127 kts 165°
2026-05-07 10:22 36.97242 -76.37197 932 ft 126 kts 165°
2026-05-07 10:22 36.96398 -76.36878 930 ft 126 kts 165°
2026-05-07 10:23 36.95567 -76.36564 931 ft 126 kts 165°
2026-05-07 10:23 36.94714 -76.36242 932 ft 126 kts 165°
2026-05-07 10:23 36.93885 -76.35927 934 ft 125 kts 165°
2026-05-07 10:23 36.93117 -76.35621 940 ft 107 kts 165°
2026-05-07 10:24 36.92470 -76.35343 933 ft 91 kts 164°
2026-05-07 10:24 36.91897 -76.35091 855 ft 85 kts 163°
2026-05-07 10:24 36.91350 -76.34852 766 ft 82 kts 163°
2026-05-07 10:24 36.90817 -76.34621 677 ft 80 kts 164°
2026-05-07 10:25 36.90292 -76.34396 587 ft 79 kts 163°
2026-05-07 10:25 36.89773 -76.34171 486 ft 79 kts 161°
2026-05-07 10:25 36.89283 -76.33868 413 ft 79 kts 150°
2026-05-07 10:25 36.88836 -76.33473 322 ft 79 kts 143°
2026-05-07 10:26 36.88419 -76.33029 351 ft 77 kts 140°
2026-05-07 10:26 36.88085 -76.32612 385 ft 60 kts 135°
2026-05-07 10:26 36.87830 -76.32235 428 ft 54 kts 133°
2026-05-07 10:26 36.87572 -76.31882 446 ft 58 kts 137°
2026-05-07 10:27 36.87264 -76.31506 469 ft 65 kts 137°
2026-05-07 10:27 36.86954 -76.31127 431 ft 60 kts 137°
2026-05-07 10:27 36.86696 -76.30798 315 ft 45 kts 135°
2026-05-07 10:27 36.86507 -76.30567 212 ft 31 kts 149°
2026-05-07 10:28 36.86357 -76.30442 183 ft 19 kts 155°
2026-05-07 10:28 36.86277 -76.30395 165 ft 8 kts 159°
2026-05-07 10:28 36.86223 -76.30376 150 ft 7 kts 160°
2026-05-07 10:28 36.86179 -76.30354 114 ft 5 kts 137°
2026-05-07 10:29 36.86171 -76.30345 107 ft 0 kts 121°